Flag for China Weather past 2 weeks in Shanghai, Shanghai Municipality, China

Now
72 °F

Clear.


Feels Like: 69 °F
Forecast: 70 / 83 °F
Wind: 3 mph from Southeast

Location: Shanghai Hongqiao Airport

Current Time: Jul 2, 2015 at 12:07:45 AM

Latest Report: Jul 1, 2015 at 11:30 PM


Visibility: 10 mi

Pressure: 29.59 "Hg

Humidity: 88%

Dew point: 68 °F

Location of ShanghaiLocation

Historic Weather in Shanghai — Graph

°F

Shanghai temperature yesterday

Maximum temperature yesterday: 82 °F (at 3:00 PM)
Minimum temperature yesterday: 66 °F (at 6:30 AM)
Average temperature yesterday: 73 °F

Past Weeks' High & Low Weather Summary

 TemperatureHumidityPressure
High97 °F (Jun 25, 11:00 AM)100% (Jun 16, 11:00 PM)29.83 "Hg (Jun 16, 11:00 PM)
Low66 °F (Jun 19, 5:00 AM)53% (Jun 25, 11:00 AM)29.42 "Hg (Jun 30, 2:00 PM)
Average76 °F86%29.66 "Hg
* Reported Jun 16 10:00 PM — Jul 1 10:30 PM, Shanghai, Weather by CustomWeather, © 2015

Note: Actual official high and low records may vary slightly from our data, if they occured in-between our weather recording intervals... More about our weather records

Advertising

Shanghai weather history for previous 24 hours

 ConditionsComfort  
Time TempWeatherWind HumidityBarometerVisibility
10:30 PM
Wed, Jul 1
72 °FClear.8 mph88%29.59 "Hg10 mi
10:00 PM73 °FClear.8 mph83%29.59 "Hg10 mi
9:30 PM73 °FClear.6 mph83%29.59 "Hg10 mi
9:00 PM73 °FClear.6 mph83%29.59 "Hg10 mi
8:30 PM73 °FClear.8 mph83%29.59 "Hg10 mi
8:00 PM73 °FPassing clouds.8 mph89%29.59 "HgN/A
7:30 PM75 °FPassing clouds.8 mph83%29.56 "HgN/A
7:00 PM75 °FScattered clouds.8 mph83%29.56 "HgN/A
6:30 PM77 °FScattered clouds.10 mph79%29.56 "HgN/A
6:00 PM79 °FScattered clouds.6 mph74%29.53 "HgN/A
5:30 PM79 °FScattered clouds.6 mph70%29.53 "HgN/A
5:00 PM81 °FScattered clouds.6 mph70%29.53 "HgN/A
4:30 PM81 °FPartly sunny.6 mph66%29.53 "HgN/A
4:00 PM81 °FPartly sunny.6 mph70%29.53 "HgN/A
3:30 PM81 °FPartly sunny.3 mph70%29.53 "HgN/A
3:00 PM82 °FPartly sunny.3 mph62%29.53 "HgN/A
2:30 PM81 °FPartly sunny.1 mph66%29.56 "HgN/A
2:00 PM79 °FPartly sunny.1 mph70%29.56 "HgN/A
1:30 PM79 °FPartly sunny.3 mph70%29.56 "HgN/A
1:00 PM79 °FScattered clouds.1 mph74%29.56 "HgN/A
12:30 PM77 °FScattered clouds.3 mph79%29.56 "HgN/A
12:00 PM75 °FScattered clouds.3 mph78%29.59 "HgN/A
11:30 AM75 °FLight rain. Passing clouds.6 mph83%29.59 "HgN/A
11:00 AM72 °FLight rain. Clear.3 mph83%29.59 "HgN/A
10:30 AM72 °FSunny.1 mph83%29.59 "Hg10 mi
10:00 AM70 °FSunny.1 mph88%29.59 "Hg10 mi
9:30 AM70 °FPassing clouds.3 mph88%29.59 "HgN/A
9:00 AM68 °FPassing clouds.3 mph94%29.56 "HgN/A
8:30 AM66 °FSprinkles. Clear.3 mph94%29.59 "HgN/A
8:00 AM66 °FPassing clouds.3 mph94%29.59 "HgN/A
7:30 AM66 °FSprinkles. Scattered clouds.3 mph94%29.56 "HgN/A
7:00 AM66 °FScattered clouds.3 mph94%29.56 "HgN/A
6:30 AM66 °FSprinkles. Partly sunny.8 mph100%29.56 "Hg4 mi
5:30 AM68 °FSprinkles. Partly sunny.8 mph100%29.53 "Hg4 mi
5:00 AM70 °FRain showers. Fog.3 mph100%29.53 "Hg2 mi
4:30 AM70 °FRain showers. Passing clouds.6 mph100%29.53 "Hg5 mi
4:00 AM70 °FRain showers. Passing clouds.3 mph100%29.50 "Hg5 mi
3:30 AM72 °FSprinkles. Passing clouds.3 mph94%29.53 "Hg5 mi
3:00 AM72 °FLight rain. Passing clouds.6 mph94%29.53 "Hg5 mi
2:30 AM72 °FLight rain. Passing clouds.6 mph88%29.53 "HgN/A
2:00 AM72 °FPassing clouds.3 mph88%29.53 "HgN/A
1:00 AM72 °FLight rain. Passing clouds.6 mph88%29.53 "HgN/A
12:30 AM72 °FPassing clouds.6 mph88%29.56 "HgN/A
12:00 AM72 °FPassing clouds.8 mph88%29.53 "HgN/A
Weather by CustomWeather, © 2015

See weather overviewHow to use our weather pages